• Em Portugal
  • Lista de países
  • Para 7 dias
  • Temperatura da água
  • Mapas de satélite
  • Mapa do tempo
  • Widgets de tempo
  • user-avatar
    Iniciar Sessão

    Previsão horária em Dawei

    Hoje, 18 Junho, Segunda-feira

    Tempo Temperatura Precipitação Vento Pressão Humidade
    00:00 +27°C° 1,4 mm 3 m/s 752 mmHg 97%
    01:00 +27°C° 0 mm 3 m/s 751 mmHg 97%
    02:00 +27°C° 2,1 mm 3 m/s 751 mmHg 97%
    03:00 +27°C° 2,1 mm 3 m/s 751 mmHg 97%
    04:00 +27°C° 2,1 mm 3 m/s 751 mmHg 97%
    05:00 +27°C° 1,7 mm 3 m/s 751 mmHg 97%
    06:00 +27°C° 1,7 mm 3 m/s 751 mmHg 97%
    07:00 +27°C° 1,7 mm 3 m/s 751 mmHg 97%
    08:00 +27°C° 1,2 mm 3 m/s 752 mmHg 97%
    09:00 +27°C° 1,2 mm 3 m/s 752 mmHg 97%
    10:00 +27°C° 1,2 mm 3 m/s 752 mmHg 96%
    11:00 +28°C° 1,2 mm 3 m/s 752 mmHg 96%
    12:00 +28°C° 1,2 mm 3 m/s 752 mmHg 95%
    13:00 +28°C° 1,2 mm 3 m/s 752 mmHg 94%
    14:00 +29°C° 1,4 mm 3 m/s 751 mmHg 94%
    15:00 +29°C° 1,4 mm 3 m/s 751 mmHg 94%
    16:00 +29°C° 1,4 mm 3 m/s 751 mmHg 94%
    17:00 +28°C° 1,5 mm 3 m/s 751 mmHg 95%
    18:00 +28°C° 1,5 mm 3 m/s 751 mmHg 95%
    19:00 +27°C° 1,5 mm 3 m/s 751 mmHg 96%
    20:00 +27°C° 1,1 mm 3 m/s 751 mmHg 96%
    21:00 +27°C° 1,1 mm 3 m/s 752 mmHg 96%
    22:00 +27°C° 1,1 mm 3 m/s 752 mmHg 96%
    23:00 +27°C° 0,9 mm 4 m/s 752 mmHg 96%

    Amanhã, 19 Junho, Terça-feira

    Tempo Temperatura Precipitação Vento Pressão Humidade
    00:00 +27°C° 0,9 mm 4 m/s 752 mmHg 96%
    01:00 +27°C° 0,9 mm 4 m/s 752 mmHg 96%
    02:00 +27°C° 1,1 mm 4 m/s 752 mmHg 96%
    03:00 +27°C° 1,1 mm 4 m/s 751 mmHg 96%
    04:00 +27°C° 1,1 mm 3 m/s 751 mmHg 96%
    05:00 +27°C° 0,8 mm 3 m/s 751 mmHg 96%
    06:00 +27°C° 0,8 mm 3 m/s 751 mmHg 96%
    07:00 +27°C° 0,8 mm 3 m/s 752 mmHg 96%
    08:00 +28°C° 1 mm 3 m/s 752 mmHg 93%
    09:00 +29°C° 1 mm 3 m/s 752 mmHg 91%
    10:00 +30°C° 1 mm 3 m/s 753 mmHg 88%
    11:00 +30°C° 1 mm 3 m/s 753 mmHg 87%
    12:00 +30°C° 1 mm 3 m/s 753 mmHg 85%
    13:00 +31°C° 1 mm 3 m/s 752 mmHg 83%
    14:00 +30°C° 1,1 mm 3 m/s 752 mmHg 84%
    15:00 +30°C° 1,1 mm 3 m/s 752 mmHg 84%
    16:00 +30°C° 1,1 mm 3 m/s 751 mmHg 85%
    17:00 +29°C° 1 mm 2 m/s 751 mmHg 88%
    18:00 +28°C° 1 mm 2 m/s 752 mmHg 91%
    19:00 +28°C° 1 mm 2 m/s 752 mmHg 95%
    20:00 +27°C° 1,1 mm 2 m/s 752 mmHg 95%
    21:00 +27°C° 1,1 mm 2 m/s 753 mmHg 96%
    22:00 +27°C° 1,1 mm 2 m/s 753 mmHg 97%
    23:00 +27°C° 0,9 mm 2 m/s 753 mmHg 96%

    Depois de amanhã, 20 Junho, Quarta-feira

    Tempo Temperatura Precipitação Vento Pressão Humidade
    00:00 +27°C° 0,9 mm 2 m/s 753 mmHg 96%
    01:00 +27°C° 0,9 mm 2 m/s 753 mmHg 96%
    02:00 +27°C° 0,7 mm 2 m/s 753 mmHg 96%
    03:00 +27°C° 0,7 mm 2 m/s 752 mmHg 96%
    04:00 +27°C° 0,7 mm 2 m/s 752 mmHg 96%
    05:00 +27°C° 0,7 mm 2 m/s 752 mmHg 96%
    06:00 +27°C° 0,7 mm 2 m/s 753 mmHg 96%
    07:00 +27°C° 0,7 mm 2 m/s 753 mmHg 95%
    08:00 +28°C° 0,7 mm 2 m/s 753 mmHg 92%
    09:00 +29°C° 0,7 mm 2 m/s 754 mmHg 88%
    10:00 +30°C° 0,7 mm 2 m/s 754 mmHg 85%
    11:00 +30°C° 0,9 mm 2 m/s 754 mmHg 84%
    12:00 +31°C° 0,9 mm 2 m/s 754 mmHg 83%
    13:00 +31°C° 0,9 mm 3 m/s 753 mmHg 82%
    14:00 +31°C° 0,8 mm 3 m/s 753 mmHg 83%
    15:00 +31°C° 0,8 mm 2 m/s 752 mmHg 84%
    16:00 +30°C° 0,8 mm 2 m/s 752 mmHg 84%
    17:00 +29°C° 0,4 mm 2 m/s 752 mmHg 88%
    18:00 +29°C° 0,4 mm 2 m/s 752 mmHg 91%
    19:00 +28°C° 0,4 mm 2 m/s 752 mmHg 94%
    20:00 +28°C° 0,7 mm 2 m/s 753 mmHg 95%
    21:00 +27°C° 0,7 mm 2 m/s 754 mmHg 96%
    22:00 +27°C° 0,7 mm 2 m/s 754 mmHg 97%
    23:00 +27°C° 0,8 mm 2 m/s 754 mmHg 97%

    21 Junho, Quinta-feira

    Tempo Temperatura Precipitação Vento Pressão Humidade
    00:00 +27°C° 0,8 mm 2 m/s 754 mmHg 97%
    01:00 +27°C° 0,8 mm 2 m/s 753 mmHg 97%
    02:00 +27°C° 1,4 mm 2 m/s 753 mmHg 97%
    03:00 +27°C° 1,4 mm 2 m/s 753 mmHg 97%
    04:00 +27°C° 1,4 mm 2 m/s 752 mmHg 97%
    05:00 +27°C° 1,1 mm 2 m/s 753 mmHg 96%
    06:00 +27°C° 1,1 mm 2 m/s 753 mmHg 96%
    07:00 +27°C° 1,1 mm 2 m/s 753 mmHg 95%
    08:00 +28°C° 1 mm 2 m/s 754 mmHg 92%
    09:00 +29°C° 1 mm 2 m/s 754 mmHg 88%
    10:00 +30°C° 1 mm 2 m/s 754 mmHg 85%
    11:00 +30°C° 1,4 mm 2 m/s 754 mmHg 86%
    12:00 +30°C° 1,4 mm 2 m/s 754 mmHg 87%
    13:00 +30°C° 1,4 mm 3 m/s 753 mmHg 88%
    14:00 +29°C° 2,5 mm 3 m/s 753 mmHg 90%
    15:00 +29°C° 2,5 mm 3 m/s 752 mmHg 92%
    16:00 +28°C° 2,5 mm 3 m/s 752 mmHg 95%
    17:00 +28°C° 2,2 mm 3 m/s 752 mmHg 95%
    18:00 +28°C° 2,2 mm 3 m/s 752 mmHg 96%
    19:00 +27°C° 2,2 mm 3 m/s 753 mmHg 97%
    20:00 +27°C° 1,5 mm 3 m/s 753 mmHg 97%
    21:00 +27°C° 1,5 mm 3 m/s 754 mmHg 97%
    22:00 +27°C° 1,5 mm 2 m/s 754 mmHg 97%
    23:00 +27°C° 1,6 mm 3 m/s 754 mmHg 97%

    22 Junho, Sexta-feira

    Tempo Temperatura Precipitação Vento Pressão Humidade
    00:00 +27°C° 1,6 mm 3 m/s 754 mmHg 97%
    01:00 +27°C° 1,6 mm 3 m/s 753 mmHg 97%
    02:00 +27°C° 2,6 mm 3 m/s 753 mmHg 97%
    03:00 +27°C° 2,6 mm 3 m/s 753 mmHg 97%
    04:00 +27°C° 2,6 mm 3 m/s 752 mmHg 97%
    05:00 +27°C° 2,4 mm 3 m/s 753 mmHg 97%
    06:00 +27°C° 2,4 mm 3 m/s 753 mmHg 97%
    07:00 +27°C° 2,4 mm 3 m/s 753 mmHg 97%
    08:00 +27°C° 3,2 mm 3 m/s 754 mmHg 97%
    09:00 +27°C° 3,2 mm 3 m/s 754 mmHg 97%
    10:00 +27°C° 3,2 mm 3 m/s 755 mmHg 97%
    11:00 +27°C° 5,4 mm 3 m/s 754 mmHg 97%
    12:00 +27°C° 5,4 mm 3 m/s 754 mmHg 97%
    13:00 +28°C° 5,4 mm 3 m/s 754 mmHg 96%
    14:00 +27°C° 3,6 mm 3 m/s 753 mmHg 96%
    15:00 +27°C° 3,6 mm 3 m/s 753 mmHg 96%
    16:00 +27°C° 3,6 mm 3 m/s 752 mmHg 96%
    17:00 +27°C° 1,5 mm 3 m/s 753 mmHg 96%
    18:00 +27°C° 1,5 mm 3 m/s 753 mmHg 97%
    19:00 +27°C° 1,5 mm 3 m/s 754 mmHg 97%
    20:00 +27°C° 1,2 mm 2 m/s 754 mmHg 97%
    21:00 +27°C° 1,2 mm 2 m/s 754 mmHg 97%
    22:00 +27°C° 1,2 mm 2 m/s 755 mmHg 98%
    23:00 +27°C° 1,4 mm 2 m/s 754 mmHg 98%

    23 Junho, Sábado

    Tempo Temperatura Precipitação Vento Pressão Humidade
    00:00 +27°C° 1,4 mm 2 m/s 754 mmHg 98%
    01:00 +27°C° 1,4 mm 2 m/s 754 mmHg 98%
    02:00 +27°C° 2 mm 2 m/s 753 mmHg 98%
    03:00 +27°C° 2 mm 2 m/s 753 mmHg 98%
    04:00 +27°C° 2 mm 2 m/s 753 mmHg 98%
    05:00 +27°C° 2 mm 2 m/s 753 mmHg 97%
    06:00 +27°C° 2 mm 2 m/s 753 mmHg 97%
    07:00 +27°C° 2 mm 2 m/s 754 mmHg 97%
    08:00 +27°C° 1,7 mm 3 m/s 754 mmHg 96%
    09:00 +28°C° 1,7 mm 3 m/s 754 mmHg 95%
    10:00 +28°C° 1,7 mm 3 m/s 755 mmHg 94%
    11:00 +28°C° 1,9 mm 3 m/s 754 mmHg 94%
    12:00 +29°C° 1,9 mm 3 m/s 754 mmHg 93%
    13:00 +29°C° 1,9 mm 3 m/s 754 mmHg 92%
    14:00 +29°C° 2,1 mm 3 m/s 753 mmHg 93%
    15:00 +28°C° 2,1 mm 3 m/s 753 mmHg 93%
    16:00 +28°C° 2,1 mm 3 m/s 753 mmHg 94%
    17:00 +28°C° 2,1 mm 3 m/s 753 mmHg 95%
    18:00 +27°C° 2,1 mm 3 m/s 753 mmHg 96%
    19:00 +27°C° 2,1 mm 3 m/s 753 mmHg 97%
    20:00 +27°C° 1,8 mm 3 m/s 754 mmHg 97%
    21:00 +27°C° 1,8 mm 3 m/s 754 mmHg 97%
    22:00 +27°C° 1,8 mm 3 m/s 755 mmHg 97%
    23:00 +27°C° 2 mm 3 m/s 754 mmHg 97%
    Mostrar mais